Lander, WY

4:29 PM MDT on March 25, 2017 (GMT -0600)
Hunt

Weather History for KLND - March, 2014

Change the Weather History Date:

Monday, March 17, 2014

  Actual Average Record
Temperature  
Mean Temperature 41 °F 36 °F  
Max Temperature 53 °F 48 °F 71 °F (2007)
Min Temperature 29 °F 24 °F -24 °F (1906)
Degree Days  
Heating Degree Days 24 29  
Month to date heating degree days 498 540  
Since 1 July heating degree days 6234 6244  
Cooling Degree Days 0 0  
Month to date cooling degree days 0 0  
Year to date cooling degree days 0 0  
Moisture  
Dew Point 24 °F    
Average Humidity 62    
Maximum Humidity 100    
Minimum Humidity 24    
Precipitation  
Precipitation 0.16 in 0.04 in 0.64 in (1998)
Month to date precipitation 0.78 0.53  
Year to date precipitation 1.58 1.52  
Snow  
Snow 2.70 in 0.60 in - ()
Month to date snowfall 10.6 7.8  
Since 1 July snowfall 65.9 61.4  
Snow Depth 3.00 in    
Sea Level Pressure  
Sea Level Pressure 29.52 in    
Wind  
Wind Speed 16 mph (WNW)    
Max Wind Speed 39 mph    
Max Gust Speed 53 mph    
Visibility 6 miles    
Events Fog , Snow    
T = Trace of Precipitation, MM = Missing Value Source: NWS Daily Summary

Daily Weather History Graph

Daily Weather History Graph

Search for Another Location

Airport or City:

Trip Planner

Search our weather history database for the weather conditions in past years. The results will help you decide how hot, cold, wet, or windy it might be!

Date:

Astronomy

Mar. 17, 2014 Rise Set
Actual Time 7:23 AM MDT 7:23 PM MDT
Civil Twilight 6:55 AM MDT 7:51 PM MDT
Nautical Twilight 6:22 AM MDT 8:24 PM MDT
Astronomical Twilight 5:48 AM MDT 8:58 PM MDT
Moon 8:46 PM MDT (3/17) 7:38 AM MDT (3/17)
Length of Visible Light 12h 56m
Length of Day
12h 00m
Full, 99% of the Moon is Illuminated
Mar 17
Full
Mar 23
Last Quarter
Mar 30
New
Apr 7
First Quarter
Apr 15
Full

Hourly Weather History & Observations

Time (MDT) Temp. Windchill Dew Point Humidity Pressure Visibility Wind Dir Wind Speed Gust Speed Precip Events Conditions
12:53 AM 46.0 °F 42.5 °F 17.1 °F 31% 29.77 in 10.0 mi WSW 6.9 mph - N/A   Clear
1:53 AM 41.0 °F 33.9 °F 16.0 °F 36% 29.74 in 10.0 mi NW 12.7 mph - N/A   Clear
2:53 AM 37.0 °F - 19.0 °F 48% 29.70 in 10.0 mi Calm Calm - N/A   Clear
3:53 AM 37.0 °F - 19.0 °F 48% 29.62 in 10.0 mi Calm Calm - N/A   Clear
4:53 AM 42.1 °F 39.2 °F 18.0 °F 38% 29.54 in 10.0 mi South 4.6 mph - N/A   Clear
5:53 AM 50.0 °F - 16.0 °F 26% 29.50 in 10.0 mi SW 6.9 mph - N/A   Clear
6:53 AM 41.0 °F 37.1 °F 21.0 °F 45% 29.48 in 10.0 mi Variable 5.8 mph - N/A   Clear
7:53 AM 46.9 °F - 18.0 °F 32% 29.43 in 10.0 mi WSW 17.3 mph 25.3 mph N/A   Clear
8:53 AM 52.0 °F - 16.0 °F 24% 29.36 in 10.0 mi WSW 25.3 mph 31.1 mph N/A   Clear
9:53 AM 50.0 °F - 16.0 °F 26% 29.38 in 10.0 mi WSW 21.9 mph 31.1 mph N/A   Clear
10:53 AM 48.9 °F - 23.0 °F 36% 29.36 in 10.0 mi WNW 19.6 mph 24.2 mph N/A   Clear
11:53 AM 50.0 °F - 19.9 °F 31% 29.35 in 10.0 mi SW 23.0 mph 36.8 mph N/A   Mostly Cloudy
12:51 PM 41.0 °F 30.0 °F 32.0 °F 70% 29.41 in 10.0 mi NW 28.8 mph 52.9 mph N/A   Mostly Cloudy
12:53 PM 41.0 °F 30.0 °F 32.0 °F 70% 29.35 in 10.0 mi NW 28.8 mph 46.0 mph N/A   Mostly Cloudy
1:53 PM 46.0 °F 37.0 °F 28.9 °F 51% 29.35 in 10.0 mi West 27.6 mph 33.4 mph N/A   Mostly Cloudy
2:53 PM 44.1 °F 34.8 °F 18.0 °F 35% 29.37 in 10.0 mi West 25.3 mph 38.0 mph N/A   Clear
3:53 PM 45.0 °F 37.1 °F 16.0 °F 31% 29.35 in 10.0 mi WNW 19.6 mph 27.6 mph N/A   Mostly Cloudy
4:53 PM 42.1 °F 31.5 °F 9.0 °F 26% 29.34 in 10.0 mi WNW 28.8 mph 36.8 mph N/A   Clear
5:53 PM 41.0 °F 32.8 °F 10.9 °F 29% 29.33 in 10.0 mi NW 16.1 mph 26.5 mph N/A   Overcast
6:53 PM 35.1 °F 23.3 °F 25.0 °F 67% 29.44 in 10.0 mi NNW 23.0 mph 36.8 mph N/A   Overcast
7:53 PM 32.0 °F 22.1 °F 28.9 °F 88% 29.49 in 1.8 mi NNW 13.8 mph - 0.00 in Snow Light Snow
8:02 PM 32.0 °F 24.2 °F 28.9 °F 88% 29.51 in 2.0 mi NNW 9.2 mph - 0.00 in Snow Light Snow
8:12 PM 30.9 °F 21.7 °F 30.0 °F 96% 29.52 in 1.2 mi NNW 11.5 mph - 0.00 in Snow Light Snow
8:19 PM 30.9 °F 22.2 °F 30.0 °F 96% 29.52 in 0.8 mi NW 10.4 mph - 0.00 in Snow Light Snow
8:37 PM 30.9 °F 23.5 °F 30.0 °F 96% 29.53 in 0.5 mi WNW 8.1 mph - 0.03 in Fog , Snow Snow
8:53 PM 30.0 °F 21.7 °F 30.0 °F 100% 29.51 in 0.5 mi West 9.2 mph - 0.05 in Fog , Snow Snow
9:53 PM 30.0 °F 22.4 °F 28.9 °F 96% 29.58 in 0.8 mi North 8.1 mph - 0.08 in Snow Light Snow
10:02 PM 30.0 °F 20.0 °F 30.0 °F 100% 29.61 in 1.2 mi North 12.7 mph - 0.01 in Snow Light Snow
10:11 PM 30.0 °F 17.9 °F 28.0 °F 92% 29.62 in 1.2 mi NNW 18.4 mph 25.3 mph 0.01 in Snow Light Snow
10:19 PM 30.0 °F 17.9 °F 28.0 °F 92% 29.62 in 0.5 mi NNW 18.4 mph 27.6 mph 0.02 in Fog , Snow Snow
10:26 PM 28.9 °F 16.5 °F 28.9 °F 100% 29.63 in 0.5 mi NW 18.4 mph 27.6 mph 0.02 in Fog , Snow Snow
10:36 PM 30.0 °F 18.3 °F 28.0 °F 92% 29.63 in 1.0 mi NW 17.3 mph - 0.03 in Snow Light Snow
10:42 PM 30.0 °F 17.9 °F 28.0 °F 92% 29.63 in 2.0 mi NW 18.4 mph 27.6 mph 0.03 in Snow Light Snow
10:50 PM 30.2 °F 17.8 °F 26.6 °F 86% 29.63 in 3.0 mi NW 19.6 mph 26.5 mph 0.03 in Snow Light Snow
10:53 PM 30.0 °F 17.5 °F 27.0 °F 88% 29.62 in 2.5 mi NW 19.6 mph - 0.03 in Snow Light Snow
11:01 PM 30.0 °F 17.9 °F 27.0 °F 88% 29.64 in 2.5 mi WNW 18.4 mph - 0.00 in Snow Light Snow
11:18 PM 30.0 °F 20.0 °F 27.0 °F 88% 29.65 in 6.0 mi NW 12.7 mph - 0.00 in Snow Light Snow
11:53 PM 30.0 °F 18.7 °F 26.1 °F 85% 29.64 in 10.0 mi WNW 16.1 mph - 0.00 in   Overcast